Tracking 33750 objects as of 15-Apr-2026
HD Live streaming from Space Station
objects crossing your sky now

HAMMER

Track HAMMER now!
10-day predictions


NORAD ID: 59148
Int'l Code: 2024-043BC
Perigee: 426.5 km
Apogee: 436.5 km
Inclination: 97.5 °
Period: 93.1 minutes
Semi major axis: 6802 km
RCS: Unknown
Launch date: March 4, 2024
Source: Spain (SPN)
Launch site: AIR FORCE WESTERN TEST RANGE (AFWTR)
Your satellite tracking list
Your tracking list is empty




NASA's NSSDC Master Catalog

Two Line Element Set (TLE):
1 59148U 24043BC  26105.28263200  .00009025  00000-0  17814-3 0  9997
2 59148  97.5374 251.2532 0007379  54.4399 305.7538 15.47384659118074
Source of the keplerian elements: AFSPC